Location: Cheyres
(46.8153°N, 6.7877°E)
Time: 01:13:35
(UTC+00:00)

Tiros 1 - Pass Details

Date: 03 June 2022
Orbit: 629 x 663 km, 48.4° (Epoch: 05 July)

Event Time Altitude Azimuth Distance (km) Brightness Sun altitude
Rises 02:34:12 0° 288° (WNW) 2,924 10.3 -9.5°
Reaches altitude 10° 02:36:34 10° 283° (WNW) 2,017 9.4 -9.2°
Maximum altitude 02:41:02 49° 209° (SSW) 825 7.3 -8.7°
Drops below altitude 10° 02:45:32 10° 135° (SE) 2,028 9.7 -8.1°
Sets 02:47:55 0° 129° (SE) 2,941 10.6 -7.9°
